EGNM

Leeds Bradford

Airport
ICAO code
EGNM
Summary
ICAO Region
EUR
ICAO Territory
Location

Yeadon, West Yorkshire, England,

Serving
Leeds and Bradford
Coordinates
53° 51' 58" N , 1° 39' 28" W
KCC
Airport CFIT
Runway Visual Perspective
Metar
EGNM 141920Z 24012KT 210V270 9999 FEW020 08/03 Q1013

Description

Domestic and international airport serving the cities of Leeds and Bradford and the rest of West Yorkshire.

Climatology

Temperate Marine climate/Oceanic climate (Köppen climate classification Cfb). Moderately cool summer and comparatively warm winter with a temperature range of only 14°C. Prevailing south-westerly winds from the Atlantic Ocean.

Runways

Designator Length Width Surface Rops
14/32 2250 46 CON Yes/Yes

Airport map

Aerial View

SKYbrary Partners:

Safety knowledge contributed by: